User: anonymous
Location: PACMO
(41.3967°N, 90.3760°W)
Time: 23:26:39
(UTC-05:00)
Language:

BREEZE-M DEB (TANK) - Orbit

View from above orbital plane
View from above orbital plane
View from above satellite
View from above satellite

Ground track
Ground track

The orbit data is extracted from the following two-line orbital elements,

1 31863U 07032B   14265.06182185  .00000494  00000-0  35666-3 0  2946
2 31863 045.9379 135.4199 4991997 193.4252 145.9065 05.50756940144387
Epoch (UTC): 22 September 2014 01:29:01
Eccentricity: 0.4991997
inclination: 45.9379°
perigee height: 405 km
apogee height: 13927 km
right ascension of ascending node: 135.4199°
argument of perigee: 193.4252°
revolutions per day: 5.50756940
mean anomaly at epoch: 145.9065°
orbit number at epoch: 14438

The dashed part of the orbit path shows where the satellite is in the earth's shadow,  

DLR